Anniston Metropolitan Airport
KANB : rendu visible

Aérodrome :











RETROUVEZ-NOUS SUR...

 
LOGIN :

S'inscrire | Disclaimer

   EN    FR    IT 

 









Légende :    VFR   VFR Marginal   IFR   IFR Intensif   IFR Très Intensif
Visi : 
Plafond : 
>= 8 km
>= 3000ft
5 à 8 km
1000 à 3000 ft
1500m à 5 km
500 à 1000 ft
800 à 1500m
200 à 500 ft
< 800m
< 200 ft
Symboles :   Orages  Brouillard  Fortes neiges  Fortes précipitations  Vent > 20 kt






- Altitude de l'aérodrome : 612 ft
- Code IATA : ANB


KANB - Anniston Metropolitan

DERNIER METAR :
  • 300253Z AUTO 00000KT 10SM BKN100 23/19 A3005 RMK AO2 SLP167 T02280194 51015

METARs EXPIRÉS :
  • 300153Z AUTO 00000KT 10SM SCT090 23/19 A3004 RMK AO2 SLP164 T02280194
  • 300053Z AUTO 31004KT 10SM CLR 26/18 A3002 RMK AO2 SLP157 T02610183

TAF KANB
Valide du 30 à 00h jusqu'au 31 à 00h UTC


292336Z 3000/3024 27004KT P6SM SCT050 BKN120
FM300300 00000KT P6SM SCT250
FM301500 34005KT P6SM FEW250
FIR KZTL / Amérique du Nord



MET'MAP, la Météo Aéronautique d'un coup d'oeil ! - Copyright ORBIFLY Décembre 2007 - Disclaimer

ORBIFLY MET'MAP TEAM :

Programmation & Développement : Alexandra Zaïnal
Sur une idée originale de : Baudouin d'Aumeries
Assistance à la programmation : Marc-Olivier Méhu
Soutien technique & logistique : Manuel Goepfert

Contact : metmap@orbifly.com




SOURCES & CREDITS :

   NOAA       Earth
Advisory